Powrót do katalogu

STARLINK-32562

AktywnyŁącznośćVLEO
NORAD 62168·PAYLOAD·🇺🇸 United States

Wystrzelony Nov 30, 2024 z Vandenberg Space Force Base

Loading…

Następne Przeloty (najbliższe 24 godziny)

TLE

ŚwieżeSource: CelesTrak SupGP

Epoka: Sep 14, 2026, 21:23 UTC

1 62168C 24225F   26257.89145833  .00025844  00000+0  21658-2 0  2574
2 62168  70.0015  47.4102 0002787 267.2216 159.5397 14.98318863    17

Śledź STARLINK-32562 w czasie rzeczywistym z AllMySat

Download on the App Store